• In Netherlands
  • List of Countries
  • For 7 days
  • Water Temperature
  • Satellite Maps
  • Weather Map
  • Weather Widgets
  • user-avatar
    Login

    Hourly Weather Punta Gorda

    Today, 22 February, Wednesday

    Time Temperature Precipitation Wind Pressure Humidity
    00:00 +25°C° 0.3 mm 1 mps 760 mmHg 92%
    01:00 +25°C° 0.5 mm 2 mps 759 mmHg 91%
    02:00 +25°C° 0.5 mm 2 mps 759 mmHg 91%
    03:00 +25°C° 0.5 mm 3 mps 759 mmHg 91%
    04:00 +25°C° 0.4 mm 3 mps 759 mmHg 89%
    05:00 +25°C° 0.4 mm 3 mps 759 mmHg 87%
    06:00 +25°C° 0.4 mm 3 mps 760 mmHg 85%
    07:00 +26°C° 0.3 mm 3 mps 760 mmHg 80%
    08:00 +26°C° 0.3 mm 3 mps 760 mmHg 76%
    09:00 +27°C° 0.3 mm 3 mps 761 mmHg 71%
    10:00 +28°C° 0 mm 3 mps 760 mmHg 62%
    11:00 +30°C° 0 mm 3 mps 760 mmHg 53%
    12:00 +33°C° 0 mm 3 mps 760 mmHg 44%
    13:00 +34°C° 0 mm 3 mps 759 mmHg 43%
    14:00 +34°C° 0 mm 2 mps 758 mmHg 42%
    15:00 +34°C° 0 mm 2 mps 757 mmHg 40%
    16:00 +32°C° 0 mm 2 mps 757 mmHg 46%
    17:00 +30°C° 0 mm 2 mps 757 mmHg 51%
    18:00 +28°C° 0 mm 2 mps 757 mmHg 56%
    19:00 +26°C° 0 mm 2 mps 758 mmHg 58%
    20:00 +25°C° 0 mm 1 mps 758 mmHg 60%
    21:00 +23°C° 0 mm 1 mps 759 mmHg 62%
    22:00 +23°C° 0 mm 2 mps 759 mmHg 61%
    23:00 +23°C° 0 mm 2 mps 759 mmHg 60%

    Tomorrow, 23 February, Thursday

    Time Temperature Precipitation Wind Pressure Humidity
    00:00 +21°C° 0 mm 2 mps 759 mmHg 59%
    01:00 +20°C° 0 mm 2 mps 758 mmHg 62%
    02:00 +19°C° 0 mm 2 mps 758 mmHg 65%
    03:00 +18°C° 0 mm 2 mps 758 mmHg 69%
    04:00 +17°C° 0 mm 2 mps 758 mmHg 70%
    05:00 +16°C° 0 mm 2 mps 758 mmHg 71%
    06:00 +16°C° 0 mm 1 mps 758 mmHg 72%
    07:00 +21°C° 0 mm 1 mps 758 mmHg 59%
    08:00 +25°C° 0 mm 1 mps 758 mmHg 47%
    09:00 +28°C° 0 mm 1 mps 759 mmHg 34%
    10:00 +30°C° 0 mm 1 mps 758 mmHg 31%
    11:00 +32°C° 0 mm 1 mps 757 mmHg 28%
    12:00 +34°C° 0 mm 1 mps 757 mmHg 24%
    13:00 +35°C° 0 mm 1 mps 756 mmHg 25%
    14:00 +36°C° 0 mm 2 mps 755 mmHg 25%
    15:00 +36°C° 0 mm 2 mps 754 mmHg 25%
    16:00 +32°C° 0 mm 2 mps 754 mmHg 36%
    17:00 +28°C° 0 mm 2 mps 754 mmHg 48%
    18:00 +25°C° 0 mm 2 mps 754 mmHg 60%
    19:00 +23°C° 0 mm 2 mps 755 mmHg 71%
    20:00 +20°C° 0 mm 2 mps 756 mmHg 81%
    21:00 +19°C° 0 mm 1 mps 757 mmHg 92%
    22:00 +18°C° 0 mm 1 mps 757 mmHg 93%
    23:00 +15°C° 0 mm 0 mps 757 mmHg 95%

    Day after tomorrow, 24 February, Friday

    Time Temperature Precipitation Wind Pressure Humidity
    00:00 +14°C° 0 mm 0 mps 757 mmHg 96%
    01:00 +14°C° 0 mm 0 mps 756 mmHg 97%
    02:00 +14°C° 0 mm 0 mps 756 mmHg 97%
    03:00 +15°C° 0 mm 1 mps 756 mmHg 97%
    04:00 +15°C° 0 mm 1 mps 756 mmHg 96%
    05:00 +14°C° 0 mm 0 mps 756 mmHg 96%
    06:00 +14°C° 0 mm 0 mps 756 mmHg 95%
    07:00 +19°C° 0 mm 0 mps 757 mmHg 79%
    08:00 +24°C° 0 mm 0 mps 757 mmHg 62%
    09:00 +29°C° 0 mm 0 mps 758 mmHg 45%
    10:00 +32°C° 0 mm 1 mps 757 mmHg 40%
    11:00 +34°C° 0 mm 1 mps 756 mmHg 35%
    12:00 +36°C° 0 mm 1 mps 756 mmHg 31%
    13:00 +37°C° 0 mm 2 mps 755 mmHg 31%
    14:00 +37°C° 0 mm 2 mps 754 mmHg 31%
    15:00 +37°C° 0 mm 3 mps 753 mmHg 31%
    16:00 +35°C° 0 mm 3 mps 754 mmHg 41%
    17:00 +31°C° 0 mm 3 mps 754 mmHg 51%
    18:00 +28°C° 0 mm 3 mps 754 mmHg 61%
    19:00 +27°C° 0 mm 3 mps 755 mmHg 69%
    20:00 +25°C° 0 mm 2 mps 756 mmHg 77%
    21:00 +23°C° 0 mm 2 mps 757 mmHg 86%
    22:00 +23°C° 0 mm 2 mps 757 mmHg 89%
    23:00 +21°C° 0 mm 2 mps 757 mmHg 92%

    25 February, Saturday

    Time Temperature Precipitation Wind Pressure Humidity
    00:00 +22°C° 0 mm 1 mps 757 mmHg 95%
    01:00 +21°C° 0 mm 1 mps 757 mmHg 96%
    02:00 +21°C° 0 mm 1 mps 757 mmHg 97%
    03:00 +21°C° 0 mm 1 mps 757 mmHg 98%
    04:00 +21°C° 0 mm 1 mps 757 mmHg 97%
    05:00 +21°C° 0 mm 1 mps 758 mmHg 97%
    06:00 +20°C° 0 mm 1 mps 758 mmHg 97%
    07:00 +24°C° 0 mm 1 mps 759 mmHg 85%
    08:00 +27°C° 0 mm 1 mps 759 mmHg 72%
    09:00 +31°C° 0 mm 1 mps 760 mmHg 60%
    10:00 +32°C° 0 mm 1 mps 759 mmHg 52%
    11:00 +34°C° 0 mm 1 mps 759 mmHg 44%
    12:00 +36°C° 0 mm 1 mps 759 mmHg 36%
    13:00 +37°C° 0 mm 2 mps 758 mmHg 35%
    14:00 +37°C° 0 mm 2 mps 757 mmHg 35%
    15:00 +37°C° 0 mm 3 mps 757 mmHg 34%
    16:00 +34°C° 0 mm 3 mps 757 mmHg 45%
    17:00 +31°C° 0 mm 3 mps 757 mmHg 56%
    18:00 +28°C° 0 mm 3 mps 758 mmHg 67%
    19:00 +27°C° 0 mm 3 mps 759 mmHg 76%
    20:00 +26°C° 0 mm 3 mps 759 mmHg 84%
    21:00 +25°C° 0 mm 2 mps 760 mmHg 93%
    22:00 +24°C° 0 mm 2 mps 760 mmHg 94%
    23:00 +23°C° 0 mm 2 mps 760 mmHg 95%

    26 February, Sunday

    Time Temperature Precipitation Wind Pressure Humidity
    00:00 +23°C° 0 mm 2 mps 760 mmHg 96%
    01:00 +23°C° 0.2 mm 1 mps 760 mmHg 96%
    02:00 +23°C° 0.2 mm 1 mps 760 mmHg 96%
    03:00 +23°C° 0.2 mm 1 mps 760 mmHg 97%
    04:00 +23°C° 0.2 mm 1 mps 760 mmHg 97%
    05:00 +23°C° 0.2 mm 1 mps 761 mmHg 97%
    06:00 +22°C° 0.2 mm 1 mps 761 mmHg 97%
    07:00 +24°C° 0.3 mm 1 mps 762 mmHg 89%
    08:00 +26°C° 0.3 mm 1 mps 762 mmHg 80%
    09:00 +28°C° 0.3 mm 1 mps 763 mmHg 71%
    10:00 +30°C° 0.3 mm 1 mps 762 mmHg 64%
    11:00 +31°C° 0.3 mm 2 mps 762 mmHg 57%
    12:00 +32°C° 0.3 mm 2 mps 761 mmHg 50%
    13:00 +32°C° 0.2 mm 2 mps 761 mmHg 53%
    14:00 +31°C° 0.2 mm 3 mps 760 mmHg 56%
    15:00 +31°C° 0.2 mm 3 mps 759 mmHg 58%
    16:00 +30°C° 0 mm 3 mps 760 mmHg 63%
    17:00 +28°C° 0 mm 3 mps 760 mmHg 67%
    18:00 +27°C° 0 mm 3 mps 761 mmHg 72%
    19:00 +26°C° 0 mm 2 mps 761 mmHg 78%
    20:00 +25°C° 0 mm 2 mps 762 mmHg 84%
    21:00 +24°C° 0 mm 2 mps 762 mmHg 90%
    22:00 +23°C° 0 mm 2 mps 762 mmHg 91%
    23:00 +21°C° 0 mm 2 mps 762 mmHg 92%

    27 February, Monday

    Time Temperature Precipitation Wind Pressure Humidity
    00:00 +21°C° 0 mm 2 mps 762 mmHg 93%
    01:00 +22°C° 0 mm 1 mps 762 mmHg 93%
    02:00 +22°C° 0 mm 1 mps 761 mmHg 93%
    03:00 +22°C° 0 mm 1 mps 761 mmHg 93%
    04:00 +22°C° 0 mm 1 mps 761 mmHg 93%
    05:00 +22°C° 0 mm 1 mps 762 mmHg 93%
    06:00 +22°C° 0 mm 1 mps 762 mmHg 93%
    07:00 +24°C° 0 mm 1 mps 762 mmHg 84%
    08:00 +26°C° 0 mm 1 mps 763 mmHg 75%
    09:00 +28°C° 0 mm 1 mps 763 mmHg 66%
    10:00 +29°C° 0 mm 1 mps 763 mmHg 60%
    11:00 +31°C° 0 mm 2 mps 762 mmHg 53%
    12:00 +32°C° 0 mm 2 mps 762 mmHg 46%
    13:00 +32°C° 0 mm 2 mps 761 mmHg 45%
    14:00 +33°C° 0 mm 3 mps 760 mmHg 45%
    15:00 +33°C° 0 mm 3 mps 759 mmHg 44%
    16:00 +30°C° 0 mm 3 mps 760 mmHg 52%
    17:00 +28°C° 0 mm 3 mps 760 mmHg 60%
    18:00 +26°C° 0 mm 3 mps 760 mmHg 68%
    19:00 +25°C° 0 mm 3 mps 761 mmHg 75%
    20:00 +24°C° 0 mm 2 mps 761 mmHg 81%
    21:00 +23°C° 0 mm 2 mps 762 mmHg 87%
    22:00 +23°C° 0.1 mm 2 mps 762 mmHg 89%
    23:00 +23°C° 0.1 mm 2 mps 762 mmHg 90%
    Show more